Regional Weather Roundup
Issued by NWS

Home | Current Version | Previous Version | Text Only | Print | Product List | Glossary Off
Versions: 1 2 3 4 5 6 7 8 9 10 11 12 13 14 15 16 17 18 19 20 21 22 23 24 25 26 27 28 29 30 31 32 33 34 35 36 37 38 39 40 41 42 43 44 45 46 47 48 49 50

000
ASUS43 KIND 260809
RWRIN

WEATHER ROUNDUP FOR INDIANA
NATIONAL WEATHER SERVICE INDIANAPOLIS IN
400 AM EDT TUE MAY 26 2015

NOTE: "FAIR" INDICATES FEW OR NO CLOUDS BELOW 12,000 FEET WITH NO
SIGNIFICANT WEATHER AND/OR OBSTRUCTIONS TO VISIBILITY.

* - STATION DOES NOT REPORT WEATHER SUCH AS PRECIPITATION OR FOG.

+ - STATION NOT QUALITY CONTROLLED BY THE NATIONAL WEATHER SERVICE.
    USE DATA WITH CAUTION...ESPECIALLY DEWPOINT AND RELATIVE
    HUMIDITY OBSERVATIONS.

INZ001>003-010>013-019-020-260900-
NORTHWEST INDIANA

CITY           SKY/WX    TMP DP  RH WIND       PRES   REMARKS
GARY /AIRPORT/ PTCLDY    70  66  88 S6        29.95S
KNOX *+        CLEAR     64  64 100 S9        29.98F
LA PORTE +     PTCLDY    67  67 100 S6        29.99S
MICHIGAN CITY+ PTCLDY    64  64 100 S7        29.97F
MONTICELLO +   MOCLDY    66  65  98 S7        29.99F
RENSSELAER +   PTCLDY    66  64  94 S12       29.98S
VALPARAISO     PTCLDY    65  63  93 S8        29.97F

$$

LMZ046-743>745-260900-
SOUTHERN LAKE MICHIGAN

STATION/POSITION TIME  TEMP    WIND        PRES    WAVE
                       AIR SEA DIR/SP/G            HT
                 (UTC) (F)     (DEG/KT/KT) (MB)    (FT)
BURNS HARBOR     0800   68     180/ 11/ 15 1014.6F
MICHIGAN CITY    0800   68     150/ 10/ 12   N/A
5NW MICH CITY    0800   61 52  180/  8/ 10   N/A     1

$$

INZ004-005-014>016-021>024-260900-
NORTH CENTRAL INDIANA

CITY           SKY/WX    TMP DP  RH WIND       PRES   REMARKS
GOSHEN         CLOUDY    67  64  90 S8        30.01S
LOGANSPORT +   PTCLDY    63  61  94 S9        30.03S
PERU/GRISSOM   PTCLDY    64  63  95 S8        30.01S
ROCHESTER +    CLEAR     68  68 100 S6        30.02S
SOUTH BEND     PTCLDY    67  64  90 S7        29.99F
WARSAW +       CLEAR     64  63  94 S3        30.01F

$$

INZ006>009-017-018-025>027-260900-
NORTHEAST INDIANA

CITY           SKY/WX    TMP DP  RH WIND       PRES   REMARKS
ANGOLA *+      CLEAR     64  63  94 S6        30.03S
AUBURN +       PTCLDY    64  61  88 CALM      30.04F
FORT WAYNE     PTCLDY    64  62  93 S9        30.04S
HUNTINGTON +   PTCLDY    64  63  94 S6        30.03S

$$

INZ028-029-035-036-043>045-051>053-260900-
WEST CENTRAL INDIANA

CITY           SKY/WX    TMP DP  RH WIND       PRES   REMARKS
CRAWFORDSVL +  CLOUDY    63  60  90 S9        30.02F
GREENCASTLE +  CLOUDY    63  61  94 S7        30.04S FOG
LAFAYETTE      MOCLDY    65  63  93 S5        29.99F
TERRE HAUTE    CLOUDY    67  65  93 S8        30.01F

$$

INZ030>032-037>040-046>048-054>057-064-065-260900-
CENTRAL INDIANA

CITY           SKY/WX    TMP DP  RH WIND       PRES   REMARKS
CP ATTERBURY + CLOUDY    66  63  88 S7        30.07S
FISHERS *+     CLOUDY    63  63 100 S7        30.04F
FRANKFORT +    MOCLDY   N/A N/A N/A SE5       30.03F
GREENWOOD *+   CLOUDY    66  63  88 S9        30.05F
INDIANAPOLIS   CLOUDY    66  63  90 SE10      30.02F
-EAGLE CREEK   CLOUDY    65  63  93 S6        30.03F
KOKOMO *+      PTCLDY    64  61  88 S8        30.03S
MARION +       PTCLDY    64  62  91 S9        30.04F
MT COMFORT *+  CLOUDY    66 N/A N/A S10       30.05F
SHELBYVILLE    CLOUDY    69  64  84 S9        30.05F
ZIONSVILLE +   MOCLDY    65  62  87 S8        30.05S

$$

INZ033-034-041-042-049-050-058-059-260900-
EAST CENTRAL INDIANA

CITY           SKY/WX    TMP DP  RH WIND       PRES   REMARKS
MUNCIE         PTCLDY    67  63  87 S6        30.04F

$$

INZ060-061-067>069-081>083-085>088-260900-
SOUTHWEST INDIANA

CITY           SKY/WX    TMP DP  RH WIND       PRES   REMARKS
EVANSVILLE     CLOUDY    70  66  87 S12       30.04R
HUNTINGBURG *+ MOCLDY    66  63  88 S6        30.05S
WASHINGTON +   CLOUDY    67  64  87 S15       30.02F

$$

INZ062-063-066-070>080-084-089>092-260900-
SOUTH CENTRAL AND SOUTHEAST INDIANA

CITY           SKY/WX    TMP DP  RH WIND       PRES   REMARKS
BLOOMINGTON    CLOUDY    66  65  96 S8        30.05S
MADISON *+     MOCLDY    64  63  94 SE3       30.11S
NORTH VERNON + MOCLDY    66  66 100 S6        30.08F
SEYMOUR +      MOCLDY    66  64  94 SE3       30.06F

$$



USA.gov is the U.S. government's official web portal to all federal, state and local government web resources and services.